Weather History for KLWM - February, 2012

Change the Weather History Date:

Wednesday, February 1, 2012

  Actual Average Record
Temperature  
Mean Temperature 42 °F -  
Max Temperature 55 °F 35 °F 59 °F (1988)
Min Temperature 30 °F 17 °F -13 °F (1935)
Degree Days  
Heating Degree Days 22    
Moisture  
Dew Point 31 °F    
Average Humidity 83    
Maximum Humidity 100    
Minimum Humidity 54    
Precipitation  
Precipitation 0.01 in - - ()
Sea Level Pressure  
Sea Level Pressure 29.91 in    
Wind  
Wind Speed 3 mph (WNW)    
Max Wind Speed 20 mph    
Max Gust Speed 30 mph    
Visibility 4 miles    
Events Fog , Rain    
Averages and records for this station are not official NWS values.
T = Trace of Precipitation, MM = Missing Value Source: NWS Daily Summary

Daily Weather History Graph

Daily Weather History Graph

Search for Another Location

Airport or City:

Trip Planner

Search our weather history database for the weather conditions in past years. The results will help you decide how hot, cold, wet, or windy it might be!

Date:

Astronomy

Feb. 01, 2012 Rise Set
Actual Time 6:59 AM EST 4:57 PM EST
Civil Twilight 6:29 AM EST 5:27 PM EST
Nautical Twilight 5:55 AM EST 6:01 PM EST
Astronomical Twilight 5:22 AM EST 6:34 PM EST
Moon 11:20 AM EST (2/1) 1:44 AM EST (2/1)
Length of Visible Light 10h 57m
Length of Day
9h 57m
Waxing Gibbous, 64% of the Moon is Illuminated
Feb 1
Waxing Gibbous
Feb 7
Full
Feb 14
Last Quarter
Feb 21
New
Feb 29
First Quarter

Hourly Weather History & Observations

Time (EST) Temp. Windchill Dew Point Humidity Pressure Visibility Wind Dir Wind Speed Gust Speed Precip Events Conditions
12:54 AM 30.9 °F - 28.9 °F 92% 30.04 in 3.0 mi Calm Calm - N/A   Overcast
1:34 AM 30.2 °F - 28.4 °F 93% 30.02 in 1.8 mi Calm Calm - N/A   Overcast
1:43 AM 30.2 °F 26.7 °F 28.4 °F 93% 30.02 in 0.5 mi NNE 3.5 mph - N/A Fog Light Freezing Fog
1:54 AM 30.9 °F 27.5 °F 28.9 °F 92% 30.01 in 0.5 mi NE 3.5 mph - N/A Fog Light Freezing Fog
2:54 AM 30.9 °F - 28.9 °F 92% 29.99 in 0.2 mi Calm Calm - N/A Fog Light Freezing Fog
3:10 AM 30.2 °F 25.4 °F 28.4 °F 93% 29.98 in 1.0 mi North 4.6 mph - N/A   Mist
3:14 AM 30.2 °F 25.4 °F 28.4 °F 93% 29.98 in 3.0 mi North 4.6 mph - N/A   Overcast
3:24 AM 30.2 °F - 28.4 °F 93% 29.98 in 2.0 mi Calm Calm - N/A   Overcast
3:38 AM 30.2 °F 26.7 °F 28.4 °F 93% 29.97 in 1.5 mi NNE 3.5 mph - N/A   Overcast
3:54 AM 30.2 °F - 28.4 °F 93% 29.96 in 0.8 mi Calm Calm - N/A   Mist
4:05 AM 30.2 °F - 28.4 °F 93% 29.95 in 0.5 mi Calm Calm - N/A Fog Light Freezing Fog
4:52 AM 30.2 °F - 28.4 °F 93% 29.94 in 0.8 mi Calm Calm - N/A   Mist
4:54 AM 30.9 °F - 28.9 °F 92% 29.94 in 0.8 mi Calm Calm - N/A   Mist
5:13 AM 30.2 °F - 28.4 °F 93% 29.93 in 1.2 mi Calm Calm - N/A   Overcast
5:54 AM 30.2 °F - 28.4 °F 93% 29.92 in 0.5 mi Calm Calm - N/A Fog Light Freezing Fog
6:54 AM 32.0 °F 28.7 °F 30.0 °F 92% 29.90 in 0.5 mi ENE 3.5 mph - N/A Fog Fog
7:29 AM 30.2 °F 26.7 °F 28.4 °F 93% 29.91 in 0.8 mi North 3.5 mph - N/A   Mist
7:44 AM 30.2 °F - 30.2 °F 100% 29.91 in 0.5 mi Calm Calm - N/A Fog Light Freezing Fog
7:51 AM 30.2 °F - 28.4 °F 93% 29.90 in 0.8 mi Calm Calm - N/A   Overcast
7:54 AM 30.9 °F - 28.9 °F 92% 29.90 in 0.8 mi Calm Calm - N/A   Overcast
8:09 AM 32.0 °F - 30.2 °F 93% 29.89 in 1.2 mi Calm Calm - N/A   Overcast
8:54 AM 33.1 °F - 30.9 °F 92% 29.88 in 1.5 mi Calm Calm - N/A   Overcast
9:21 AM 33.8 °F 30.8 °F 30.2 °F 87% 29.86 in 2.0 mi South 3.5 mph - N/A   Overcast
9:44 AM 35.6 °F - 33.8 °F 93% 29.86 in 3.0 mi Calm Calm - N/A   Overcast
9:54 AM 36.0 °F - 32.0 °F 86% 29.86 in 4.0 mi Calm Calm - N/A   Mostly Cloudy
10:10 AM 35.6 °F - 32.0 °F 87% 29.85 in 4.0 mi Calm Calm - N/A   Partly Cloudy
10:54 AM 37.9 °F 35.5 °F 33.1 °F 83% 29.84 in 5.0 mi WNW 3.5 mph - N/A   Haze
11:54 AM 39.0 °F - 33.1 °F 79% 29.82 in 5.0 mi Calm Calm - N/A   Haze
12:54 PM 39.9 °F 37.8 °F 36.0 °F 86% 29.80 in 4.0 mi WSW 3.5 mph - 0.00 in Rain Light Rain
2:54 PM 52.0 °F - 41.0 °F 66% 29.77 in 10.0 mi WSW 6.9 mph - N/A   Clear
3:54 PM 55.4 °F - 41.0 °F 58% 29.78 in 10.0 mi West 11.5 mph 19.6 mph N/A   Clear
4:54 PM 54.0 °F - 41.0 °F 62% 29.79 in 10.0 mi WSW 6.9 mph - N/A   Mostly Cloudy
5:54 PM 53.1 °F - 42.1 °F 66% 29.82 in 10.0 mi West 19.6 mph 28.8 mph 0.00 in Rain Light Rain
6:54 PM 51.1 °F - 39.0 °F 63% 29.85 in 10.0 mi West 12.7 mph 23.0 mph 0.00 in   Partly Cloudy
7:54 PM 51.1 °F - 35.1 °F 54% 29.85 in 10.0 mi West 15.0 mph 29.9 mph N/A   Clear
8:54 PM 48.9 °F - 32.0 °F 52% 29.88 in 10.0 mi West 10.4 mph 26.5 mph N/A   Clear
9:54 PM 46.0 °F 41.4 °F 30.9 °F 56% 29.91 in 10.0 mi West 9.2 mph 20.7 mph N/A   Clear
10:54 PM 42.1 °F 37.7 °F 30.0 °F 62% 29.94 in 10.0 mi West 6.9 mph - N/A   Clear
11:54 PM 42.1 °F 38.4 °F 30.0 °F 62% 29.96 in 10.0 mi WSW 5.8 mph - N/A   Clear